Regional Weather Roundup
Issued by NWS

Home | Current Version | Previous Version | Graphics & Text | Print | Product List | Glossary On
Versions: 1 2 3 4 5 6 7 8 9 10 11 12 13 14 15 16 17 18 19 20 21 22 23 24 25 26 27
000
ASUS45 KPSR 170610
RWRAZ

ARIZONA HOURLY REGIONAL WEATHER ROUNDUP
NATIONAL WEATHER SERVICE PHOENIX AZ
1100 PM MST TUE JAN 16 2018

NOTE: FAIR INDICATES FEW OR NO CLOUDS BELOW 12,000 FEET WITH NO
SIGNIFICANT WEATHER AND/OR OBSTRUCTIONS TO VISIBILITY.

AZZ001>003-036-170700-
NORTHWEST ARIZONA

CITY           SKY/WX    TMP DP  RH WIND       PRES   REMARKS
BULLHEAD CITY  PTCLDY    57  39  51 N6        30.18S
KINGMAN        PTCLDY    42  32  67 S5        30.24R
6HR MIN TEMP:  41; 6HR MAX TEMP:  60;

$$

AZZ004>008-015-016-018-170700-
NORTH CENTRAL ARIZONA

CITY           SKY/WX    TMP DP  RH WIND       PRES   REMARKS
GRAND CANYON   PTCLDY    26  19  74 CALM      30.32F
6HR MIN TEMP:  25; 6HR MAX TEMP:  45;

WILLIAMS       CLEAR     28  23  80 S9        30.29S WCI  20
PRESCOTT       CLEAR     41  28  60 S6        30.26R
6HR MIN TEMP:  41; 6HR MAX TEMP:  57;

FLAGSTAFF      PTCLDY    26  21  81 CALM      30.33R
6HR MIN TEMP:  26; 6HR MAX TEMP:  43;

PAYSON         PTCLDY    39  18  41 S5        30.29S
PAGE           MOCLDY    41  18  39 SE3       30.31S
6HR MIN TEMP:  40; 6HR MAX TEMP:  48;

$$

AZZ009>014-017-170700-
NORTHEAST ARIZONA

CITY           SKY/WX    TMP DP  RH WIND       PRES   REMARKS
WINSLOW        PTCLDY    30  14  51 SW3       30.32R
6HR MIN TEMP:  29; 6HR MAX TEMP:  51;

SAINT JOHNS    CLEAR     31  23  72 S6        30.30S WCI  25
6HR MIN TEMP:  31; 6HR MAX TEMP:  49;

WINDOW ROCK    CLEAR     21  16  81 CALM      30.34S
6HR MIN TEMP:  20; 6HR MAX TEMP:  42;

SHOW LOW       PTCLDY    34  23  64 S3        30.34R
$$

AZZ540-542>544-546-548-170700-
GREATER PHOENIX AREA

CITY           SKY/WX    TMP DP  RH WIND       PRES   REMARKS
PHOENIX        PTCLDY    58  28  32 E5        30.16R
6HR MIN TEMP:  58; 6HR MAX TEMP:  71;

BUCKEYE        PTCLDY    55  28  35 E9        30.17R
LUKE AFB       CLEAR     51  39  62 CALM      30.16R
6HR MIN TEMP:  51; 6HR MAX TEMP:  69;

DEER VALLEY    CLEAR     57  29  34 E3        30.17R
6HR MIN TEMP:  54; 6HR MAX TEMP:  69;

SCOTTSDALE     CLEAR     54  33  45 W3        30.18R
6HR MIN TEMP:  54; 6HR MAX TEMP:  68;

MESA-GATEWAY   MOCLDY    57  23  26 E7        30.18S
$$

AZZ539-553-170700-
SOUTHWEST MARICOPA COUNTY AND PINAL COUNTY

CITY           SKY/WX    TMP DP  RH WIND       PRES   REMARKS
CASA GRANDE    NOT AVBL
GILA BEND      FAIR      58  24  26 E12       30.13R
6HR MIN TEMP:  58; 6HR MAX TEMP:  71;

$$

AZZ503-504-507>509-170700-
SOUTHEAST ARIZONA

CITY           SKY/WX    TMP DP  RH WIND       PRES   REMARKS
TUCSON         PTCLDY    55  19  24 E18G28    30.19R
6HR MIN TEMP:  55; 6HR MAX TEMP:  64;

DAVIS-MONTHAN  PTCLDY    53  19  26 E7        30.18R
6HR MIN TEMP:  53; 6HR MAX TEMP:  64;

NOGALES        PTCLDY    50  22  33 NE7       30.21R
6HR MIN TEMP:  50; 6HR MAX TEMP:  64;

SIERRA VISTA   CLOUDY    39  15  38 E5        30.28F
6HR MIN TEMP:  38; 6HR MAX TEMP:  53;

DOUGLAS        CLEAR     38  17  42 E7        30.31S WCI  33
6HR MIN TEMP:  38; 6HR MAX TEMP:  48;

SAFFORD        CLEAR     40  15  36 SE9       30.37F WCI  34
6HR MIN TEMP:  40; 6HR MAX TEMP:  50;

$$

AZZ532-170700-
SOUTHWEST ARIZONA

CITY           SKY/WX    TMP DP  RH WIND       PRES   REMARKS
YUMA           NOT AVBL
$$

CAZ041-043-047-048-061-525>527-560>570-170700-
SOUTHERN CALIFORNIA

CITY           SKY/WX    TMP DP  RH WIND       PRES   REMARKS
DOWNTOWN L.A.  MOCLDY    59  54  83 CALM      30.14R
6HR MIN TEMP:  58; 6HR MAX TEMP:  67;

L.A. AIRPORT   MOCLDY    60  56  86 SE5       30.15R
6HR MIN TEMP:  59; 6HR MAX TEMP:  63;

SAN DIEGO      MOCLDY    60  56  86 N5        30.16R
6HR MIN TEMP:  60; 6HR MAX TEMP:  68;

BURBANK        MOCLDY    59  50  72 N3        30.14R
6HR MIN TEMP:  59; 6HR MAX TEMP:  69;

ONTARIO        MOCLDY    60  44  55 CALM      30.14F
6HR MIN TEMP:  59; 6HR MAX TEMP:  70;

RIVERSIDE      PTCLDY    57  46  66 SE3       30.14S
6HR MIN TEMP:  57; 6HR MAX TEMP:  70;

PALM SPRINGS   MOCLDY    63  45  51 N5        30.16S
6HR MIN TEMP:  61; 6HR MAX TEMP:  75;

IMPERIAL       CLOUDY    57  40  52 CALM      30.12S
6HR MIN TEMP:  57; 6HR MAX TEMP:  76;

BLYTHE         MOCLDY    58  38  47 NW3       30.15S
6HR MIN TEMP:  53; 6HR MAX TEMP:  71;

NEEDLES        PTCLDY    58  37  45 W8        30.18S
6HR MIN TEMP:  56; 6HR MAX TEMP:  70;

$$

NVZ020-UTZ003-170700-
SOUTHERN NEVADA-UTAH

CITY           SKY/WX    TMP DP  RH WIND       PRES   REMARKS
LAS VEGAS      CLOUDY    52  38  58 SW6       30.22R
6HR MIN TEMP:  52; 6HR MAX TEMP:  64;

SALT LAKE CITY MOCLDY    38  30  73 SW6       30.33R WCI  33
6HR MIN TEMP:  38; 6HR MAX TEMP:  42;

$$

NMZ009-TXZ055-170700-
NEW MEXICO-WEST TEXAS

CITY           SKY/WX    TMP DP  RH WIND       PRES   REMARKS
ALBUQUERQUE    CLEAR     25  15  66 CALM      30.41S
6HR MIN TEMP:  24; 6HR MAX TEMP:  34;

EL PASO        PTCLDY    28   6  39 E5        30.46S WCI  23
6HR MIN TEMP:  28; 6HR MAX TEMP:  36;

$$


........................KEY........................
SKY/WX - SKY CONDITION/WEATHER
TMP    - TEMPERATURE IN FAHRENHEIT
DP     - DEW POINT IN FAHRENHEIT
RH     - RELATIVE HUMIDITY IN PERCENT
WIND   - DIRECTION AND SPEED IN MILES PER HOUR (MPH)
VRB    - VARIABLE WIND DIRECTION
PRES   - MEAN SEA LEVEL PRESSURE IN INCHES OF MERCURY
         F - FALLING PRESSURE   R - RISING PRESSURE
         S - STEADY PRESSURE
VSB    - VISIBILITY IN MILES
HX     - HEAT INDEX IN FAHRENHEIT
WCI    - WIND CHILL INDEX IN FAHRENHEIT
TC     - TEMPERATURE IN CELSIUS WHICH IS ALSO KNOWN AS
         TEMPERATURE IN CENTIGRADE
AFB    - AIR FORCE BASE
         LUKE AFB IS LUKE AIR FORCE BASE
         DAVIS-MONTHAN IS DAVIS-MONTHAN AIR FORCE BASE
NAS    - NAVAL AIR STATION
         EL CENTRO NAS IS EL CENTRO NAVAL AIR STATION
N/A    - NOT AVAILABLE





USA.gov is the U.S. government's official web portal to all federal, state and local government web resources and services.